Погода в Демянске

Погода в Демянске : погода сейчас, прогноз погоды и архив. Всё, что Вы хотите узнать о погоде в Демянске!

Поиск расширенной информации на нашем сайте:

Другие новости

Новости СМИ2

Главная страница сайта

Новости сайта

03.07.2017

Напоминаем, что на нашем специализированном сайте Метеоцентр.Азия вы можете получить высокодетализированные автоматические прогнозы погоды по пунктам России, СНГ и мира в авиационном формате (включающие направление и скорость ветра, видимость, явления погоды, количество и форму облачности, нижнюю и верхнюю границу облачности).

Рекомендуем: Печать наклеек с логотипом - распродажа наклейки с логотипом rpkactive.com.ua.

Погода в Демянске - сегодня

Время (UTC), дата Ветер
(°,м/с) 
Видим.   Явления Облачность Т
(°С)
Тd
(°С)
f(%) Тe
(°С)
Pmin
(гПа)
dP
(гПа)
Po
(мм)
O2
(г/м3)
Тmin Tmax R s Состояние
почвы
15 17.06.18 тихо ()   н/о    н/о 
+20.9 +12.7 59 +26  1018  -0.8  758  281           
21 17.06.18 100 (В) н/о    н/о 
+15.1 +13.9 93 +23  1017.2  -0.3  757  286           
00 18.06.18 100 (В) н/о    н/о 
+15 +12.9 87 +21  1016.6  -0.6  757  287           
03 18.06.18 100 (В) н/о    н/о 
+15.3 +12.7 84 +22  1015.9  -0.7  756  286  +14.1         
09 18.06.18 230 (ЮЗ) н/о    н/о 
+24.6 +14.2 52 +32  1014.8  -0.3  756  277           
12 18.06.18 280 (З) н/о    н/о 
+24.3 +14.9 56 +33  1014.4  -0.4  755  276           
15 18.06.18 280 (З) н/о    н/о 
+24.7 +11.9 45 +28  1013.7  -0.7  755  277           
21 18.06.18 110 (В) н/о    н/о 
+14 +13 94 +20  1013.6  0.2  755  287           
00 19.06.18 110 (В) н/о    н/о 
+12.2 +11.3 94 +16  1013  -0.7  754  289           
03 19.06.18 тихо ()   н/о    н/о 
+16.2 +14.2 88 +23  1013.8  0.9  755  284  +11.9         
09 19.06.18 280 (З) н/о    н/о 
+21.1 +10.6 51 +23  1012.3  -1.3  754  280           
12 19.06.18 250 (З) н/о    н/о 
+22.1 +9.8 46 +23  1010.3  -1.9  752  279           
15 19.06.18 250 (З) 3{11}  н/о    н/о 
+21.8 +9.4 45 +22  1008.4  -1.9  751  279           
18 19.06.18 270 (З) 6-15{15}  4000 м  слаб. ливневой дождь  10/10 540 м кучево-дожд. 
[Cb calv]
+19 +12.1 64 +23  1007.2  -1.2  750  280    +22.9  0.0     
21 19.06.18 260 (З) 2{15}  н/о    н/о 
+13.5 +10.6 83 +16  1009  1.6  751  286           
00 20.06.18 250 (З) н/о    н/о 
+11.5 +9.5 88 +13  1009.5  1.6  752  289           
03 20.06.18 220 (ЮЗ) н/о    н/о 
+11.8 +9.9 88 +14  1009.5  0.1  752  289  +10.6         
09 20.06.18 300 (СЗ) 5-10{13}  н/о    н/о 
+19.2 +5.4 40 +20  1009.2  0.3  752  282           
21 20.06.18 250 (З) н/о    н/о 
+15 +5 51 +16  1010.7  0.4  753  287           
00 21.06.18 240 (ЮЗ) н/о    н/о 
+13.8 +5.2 56 +15  1010.8  0.1  753  288           
03 21.06.18 260 (З) н/о    н/о 
+13.5 +7.3 66 +15  1011  0.2  753  288  +13.4         
09 21.06.18 250 (З) н/о    н/о 
+15 +11.6 80 +19  1010.9  -0.4  753  285           
12 21.06.18 190 (Ю) н/о    н/о 
+19.2 +13.9 71 +28  1010.2  -0.6  752  280           
15 21.06.18 110 (В) н/о    н/о 
+22.7 +15.7 65 +33  1008.5  -1.6  751  276           
21 21.06.18 140 (ЮВ) н/о    н/о 
+19.3 +11.7 61 +24  1006.3  -0.8  749  280           
Время (UTC), дата Ветер
(°,м/с) 
Видим.   Явления Облачность Т
(°С)
Тd
(°С)
f(%) Тe
(°С)
Pmin
(гПа)
dP
(гПа)
Po
(мм)
O2
(г/м3)
Тmin Tmax R s Состояние
почвы

Для получения пояснительной информации подведите курсор к названию столбца.

ПОГОДА в Демянске - архив

Всё, что Вы хотите узнать о погоде в Демянске - удобно и подробно!

Выберите нужную дату (начиная с 1 января 2015* года) и нажмите кнопку "Найти".
Будут отображены архивные сводки погоды по пункту Демянск, начиная с указанной даты.


Отображать данные в формате CSV (для использования в таблицах Excel)


Внимание! Наш архив погоды предназначен исключительно для личного некоммерческого использования в познавательных целях. Если Вам необходимы официальные справки о состоянии погоды (для производственных, юридических, коммерческих и т.п. целей), обращайтесь в органы Росгидромета.

*Примечание: данная дата относится к архиву по метеостанциям СССР (Россия, СНГ, Балтия).
Архив по метеостанциям Зарубежной Европы и Азии (кроме Китая) хранится 10 дней, по другим регионам земного шара (Китай, Африка, Америка, Австралия, Океания) - 1 день.

Демянск - район местоположения метеостанции


Название, широта, долгота, высота метеостанции:
Демянск 57.6°ш. 32.5°д. 62 м над ур. моря [Российская Федерация]

Дополнительная информация

В oтличие oт бoльшинства пoгoдных сайтoв мы публикуем пoдрoбную метеoинфoрмацию в детальнoм прoфессиoнальнoм фoрмате.

Характеристики температуры и влажнoсти вoздуха измеряются на высoте 2 м в тени вдали oт зданий и деревьев.
Скoрoсть ветра измеряется на высoте 10 м (на урoвне рoста челoвека скoрoсть ветра ниже в 1.5-2 раза). Если метеoстанция нахoдится в гoрoде или в лесу, тo скoрoсть ветра занижена на 2-4 м/с пo сравнению с oткрытым местoм. Скoрoсть ветра над акватoриями крупных рек и oзёр, а также на вершинах хoлмoв на 2-5 м/с выше, чем в oбычных услoвиях.
Атмoсфернoе давление в разных тoчках местнoсти мoжет значительнo oтличаться oт давления на метеoстанции, в зависимoсти oт услoвий рельефа (при пoдъёме на 10 м давление пoнижается примернo на 1 мм рт.ст.).